Meteo Giornale » Osservazioni meteo Italia » Bergamo-Orio Al Serio

ore: 21:50 - Osservazioni Meteo Bergamo-Orio Al Serio
Lat. 45° 40' N Lon. 9° 42' E Alt. 238 metri s.l.m.

sereno Europe/Rome

8 °C

Sereno

Temp. 24 Ore

2 °C

13 °C

Nord

5.5 Km/h

Dew point 3 °C

Umidità 70 %

Visibilità  8 Km

Il sole sorge alle ore 07:14

Il sole tramonta alle ore 17:55

Data e Ora Cielo e Fenomeni T °C DP °C Um. % Pres. hPa Vis. km Vento km/h
Oggi h: 21:50 sereno Sereno 8 3 70 1022 8 N 5.5
Oggi h: 21:20 sereno Sereno 7 3 75 1022 7 N 5.5
Oggi h: 20:50 sereno Sereno 6 3 81 1021 7 N 9.3
Oggi h: 20:20 sereno Sereno 7 3 75 1021 8 N 7.4
Oggi h: 19:50 sereno Sereno 8 3 70 1021 8 N 7.4
Oggi h: 19:20 sereno Sereno 9 3 66 1021 8 N 5.5
Oggi h: 18:50 sereno Sereno 9 3 66 1021 7 N 3.7
Oggi h: 18:20 sereno Sereno 10 3 61 1020 7 O/SO 7.4
Oggi h: 17:50 sereno Sereno 11 3 57 1020 6 SO 9.3
Oggi h: 17:20 sereno Sereno 12 3 54 1020 7 O/SO 13
Oggi h: 16:50 sereno Sereno 13 3 50 1020 8 O/SO 13
Oggi h: 16:20 sereno Sereno 13 4 54 1020 8 O/SO 14.8
Oggi h: 15:50 sereno Sereno 13 4 54 1020 10 O/SO 14.8
Oggi h: 15:20 sereno Sereno 13 4 54 1020 8 O 13
Oggi h: 14:50 sereno Sereno 13 4 54 1020 8 O 14.8
Oggi h: 14:20 sereno Sereno 13 4 54 1021 8 O/SO 11.1
Oggi h: 13:50 sereno Sereno 13 4 54 1021 10 O/SO 9.3
Oggi h: 13:20 sereno Sereno 12 4 57 1021 10 O/SO 11.1
Oggi h: 12:50 sereno Sereno 12 5 62 1022 10 O/SO 14.8
Oggi h: 12:20 sereno Sereno 11 4 61 1022 10 O 14.8
Oggi h: 11:50 sereno Sereno 11 4 61 1022 10 O 14.8
Oggi h: 11:20 sereno Sereno 10 4 66 1022 9 O 13
Oggi h: 10:50 sereno Sereno 10 4 66 1022 9 O 13
Oggi h: 10:20 sereno Sereno 9 4 70 1022 8 O 9.3
Oggi h: 09:50 sereno Sereno 8 2 65 1022 8 N 3.7
Oggi h: 09:20 sereno Sereno 6 2 75 1022 8 N 5.5
Oggi h: 08:50 sereno Sereno 5 1 75 1022 8 N 7.4
Oggi h: 08:20 sereno Sereno 3 0 80 1022 8 N 11.1
Oggi h: 07:50 sereno Sereno 3 0 80 1021 7 N 7.4
Oggi h: 07:20 sereno Sereno 2 0 86 1021 7 N 7.4
Oggi h: 06:20 sereno Sereno 3 0 80 1021 8 N 7.4
Oggi h: 05:50 sereno Sereno 2 0 86 1021 8 N 3.7
Oggi h: 05:20 sereno Sereno 3 1 86 1021 8 N 7.4
Oggi h: 04:50 sereno Sereno 3 1 86 1021 10 N 3.7
Oggi h: 04:20 sereno Sereno 2 0 86 1021 10 N 1.8
Oggi h: 03:50 sereno Sereno 3 1 86 1021 10 N 3.7
Oggi h: 03:20 sereno Sereno 3 0 80 1021 10 N 3.7
Oggi h: 02:50 sereno Sereno 3 0 80 1021 10 N 5.5
Oggi h: 02:20 sereno Sereno 3 1 86 1022 10 N 3.7
Oggi h: 01:50 sereno Sereno 4 1 80 1022 10 N 5.5
Oggi h: 01:20 sereno Sereno 4 1 80 1022 10 N 3.7
Oggi h: 00:50 sereno Sereno 4 1 80 1022 10 N 3.7
Oggi h: 00:20 sereno Sereno 5 1 75 1022 10 NO 7.4
Ieri h: 23:50 sereno Sereno 5 1 75 1022 10 N 5.5
Ieri h: 23:20 sereno Sereno 7 2 70 1022 10 N 5.5
Ieri h: 22:50 sereno Sereno 7 2 70 1022 8 N 5.5
Ieri h: 22:20 sereno Sereno 7 3 75 1022 8 O 9.3
Ieri h: 21:50 sereno Sereno 6 2 75 1022 8 N 11.1